Weather History for KHSP - January, 2008

Change the Weather History Date:

Wednesday, January 2, 2008

  Actual Average Record
Temperature  
Mean Temperature 12 °F -  
Max Temperature 17 °F 34 °F 55 °F (2000)
Min Temperature 8 °F 21 °F 6 °F (2001)
Degree Days  
Heating Degree Days 52    
Moisture  
Dew Point 6 °F    
Average Humidity 77    
Maximum Humidity 92    
Minimum Humidity 62    
Precipitation  
Precipitation 0.00 in - - ()
Sea Level Pressure  
Sea Level Pressure 29.96 in    
Wind  
Wind Speed 26 mph (WNW)    
Max Wind Speed 36 mph    
Max Gust Speed 43 mph    
Visibility 10 miles    
Events Snow    
Averages and records for this station are not official NWS values.
T = Trace of Precipitation, MM = Missing Value Source: NWS Daily Summary

Daily Weather History Graph

Daily Weather History Graph

Search for Another Location

Airport or City:

Trip Planner

Search our weather history database for the weather conditions in past years. The results will help you decide how hot, cold, wet, or windy it might be!

Date:

Astronomy

Jan. 02, 2008 Rise Set
Actual Time 7:35 AM EST 5:11 PM EST
Civil Twilight 7:06 AM EST 5:40 PM EST
Nautical Twilight 6:33 AM EST 6:13 PM EST
Astronomical Twilight 6:01 AM EST 6:45 PM EST
Moon 2:25 AM EST 12:46 PM EST
Length of Visible Light 10h 34m
Length of Day
9h 35m
Waning Crescent, 28% of the Moon is Illuminated
Jan 2
Waning Crescent
Jan 8
New
Jan 15
First Quarter
Jan 22
Full
Jan 30
Last Quarter

Hourly Weather History & Observations

Time (EST) Temp. Windchill Dew Point Humidity Pressure Visibility Wind Dir Wind Speed Gust Speed Precip Events Conditions
12:00 AM 14.0 °F -6.5 °F 8.6 °F 79% 29.83 in 10.0 mi WNW 28.8 mph 40.3 mph N/A Snow Light Snow
12:20 AM 14.0 °F -4.3 °F 8.6 °F 79% 29.83 in 10.0 mi WNW 21.9 mph 41.4 mph N/A Snow Light Snow
12:40 AM 14.0 °F -4.3 °F 10.4 °F 86% 29.83 in 10.0 mi WNW 21.9 mph 32.2 mph N/A Snow Light Snow
1:00 AM 14.0 °F -6.5 °F 10.4 °F 86% 29.82 in 7.0 mi West 28.8 mph 39.1 mph N/A Snow Light Snow
1:20 AM 14.0 °F -6.5 °F 10.4 °F 86% 29.82 in 10.0 mi West 28.8 mph 34.5 mph N/A   Overcast
1:40 AM 14.0 °F -8.3 °F 8.6 °F 79% 29.81 in 10.0 mi WNW 35.7 mph 40.3 mph N/A   Overcast
2:00 AM 12.2 °F -9.9 °F 6.8 °F 79% 29.80 in 10.0 mi WNW 32.2 mph 40.3 mph N/A   Mostly Cloudy
2:40 AM 10.4 °F -12.0 °F 6.8 °F 85% 29.81 in 10.0 mi West 31.1 mph 40.3 mph N/A   Scattered Clouds
3:00 AM 10.4 °F -12.0 °F 5.0 °F 79% 29.82 in 10.0 mi West 31.1 mph 41.4 mph N/A   Mostly Cloudy
3:20 AM 10.4 °F -12.0 °F 5.0 °F 79% 29.82 in 10.0 mi WNW 31.1 mph 42.6 mph N/A   Mostly Cloudy
3:40 AM 10.4 °F -11.7 °F 3.2 °F 73% 29.81 in 10.0 mi West 29.9 mph 41.4 mph N/A Snow Light Snow
4:00 AM 10.4 °F -11.4 °F 3.2 °F 73% 29.81 in 10.0 mi West 28.8 mph 41.4 mph N/A   Overcast
4:20 AM 8.6 °F -12.3 °F 3.2 °F 79% 29.81 in 10.0 mi WNW 24.2 mph 40.3 mph N/A   Overcast
4:40 AM 8.6 °F -14.5 °F 3.2 °F 79% 29.81 in 10.0 mi West 31.1 mph 41.4 mph N/A   Overcast
5:00 AM 8.6 °F -13.8 °F 3.2 °F 79% 29.82 in 10.0 mi West 28.8 mph 39.1 mph N/A   Overcast
5:20 AM 8.6 °F -13.1 °F 3.2 °F 79% 29.83 in 10.0 mi WNW 26.5 mph 38.0 mph N/A   Overcast
5:40 AM 8.6 °F -12.7 °F 3.2 °F 79% 29.84 in 10.0 mi WNW 25.3 mph 40.3 mph N/A   Overcast
6:00 AM 8.6 °F -13.8 °F 3.2 °F 79% 29.84 in 10.0 mi WNW 28.8 mph 40.3 mph N/A   Overcast
6:20 AM 8.6 °F -14.5 °F 3.2 °F 79% 29.85 in 10.0 mi WNW 31.1 mph 39.1 mph N/A   Overcast
6:40 AM 8.6 °F -12.3 °F 3.2 °F 79% 29.86 in 10.0 mi WNW 24.2 mph 39.1 mph N/A   Overcast
7:00 AM 8.6 °F -13.1 °F 3.2 °F 79% 29.87 in 10.0 mi WNW 26.5 mph 38.0 mph N/A   Overcast
7:20 AM 8.6 °F -13.8 °F 3.2 °F 79% 29.88 in 10.0 mi WNW 28.8 mph 34.5 mph N/A   Overcast
7:40 AM 8.6 °F -13.4 °F 3.2 °F 79% 29.89 in 10.0 mi WNW 27.6 mph 34.5 mph N/A   Overcast
8:00 AM 8.6 °F -13.4 °F 3.2 °F 79% 29.90 in 10.0 mi WNW 27.6 mph 35.7 mph N/A   Overcast
8:20 AM 8.6 °F -12.7 °F 3.2 °F 79% 29.91 in 10.0 mi WNW 25.3 mph 31.1 mph N/A   Mostly Cloudy
8:40 AM 8.6 °F -12.3 °F 3.2 °F 79% 29.92 in 10.0 mi WNW 24.2 mph 31.1 mph N/A   Overcast
9:00 AM 8.6 °F -12.7 °F 3.2 °F 79% 29.94 in 10.0 mi WNW 25.3 mph 34.5 mph N/A   Overcast
9:20 AM 8.6 °F -12.7 °F 3.2 °F 79% 29.95 in 10.0 mi West 25.3 mph 35.7 mph N/A   Overcast
9:40 AM 10.4 °F -10.3 °F 5.0 °F 79% 29.96 in 10.0 mi West 25.3 mph 34.5 mph N/A   Overcast
10:00 AM 10.4 °F -10.7 °F 3.2 °F 73% 29.97 in 10.0 mi West 26.5 mph 34.5 mph N/A   Overcast
10:20 AM 10.4 °F -10.7 °F 5.0 °F 79% 29.98 in 10.0 mi WNW 26.5 mph 39.1 mph N/A   Mostly Cloudy
10:40 AM 10.4 °F -8.6 °F 5.0 °F 79% 29.99 in 10.0 mi WNW 20.7 mph 32.2 mph N/A   Overcast
11:20 AM 12.2 °F -5.8 °F 6.8 °F 79% 30.01 in 10.0 mi WNW 19.6 mph 34.5 mph N/A   Overcast
11:40 AM 12.2 °F -5.3 °F 6.8 °F 79% 30.01 in 10.0 mi WNW 18.4 mph 32.2 mph N/A   Mostly Cloudy
12:00 PM 14.0 °F -7.1 °F 6.8 °F 73% 30.00 in 10.0 mi WNW 31.1 mph 40.3 mph N/A   Scattered Clouds
12:20 PM 14.0 °F -3.9 °F 6.8 °F 73% 30.00 in 10.0 mi WNW 20.7 mph 34.5 mph N/A   Scattered Clouds
12:40 PM 15.8 °F -1.5 °F 6.8 °F 68% 30.00 in 10.0 mi NW 20.7 mph 33.4 mph N/A   Scattered Clouds
1:00 PM 15.8 °F -1.5 °F 8.6 °F 73% 30.01 in 10.0 mi WNW 20.7 mph 36.8 mph N/A   Clear
1:20 PM 15.8 °F -0.6 °F 6.8 °F 68% 30.01 in 10.0 mi WNW 18.4 mph 35.7 mph N/A   Clear
1:40 PM 14.0 °F -4.7 °F 6.8 °F 73% 30.02 in 10.0 mi WNW 23.0 mph 34.5 mph N/A   Clear
2:00 PM 15.8 °F -2.7 °F 6.8 °F 68% 30.03 in 10.0 mi WNW 24.2 mph 34.5 mph N/A   Clear
2:20 PM 17.6 °F 0.5 °F 8.6 °F 68% 30.04 in 10.0 mi NW 21.9 mph 33.4 mph N/A   Clear
2:40 PM 17.6 °F -0.3 °F 6.8 °F 63% 30.06 in 10.0 mi NNW 24.2 mph 35.7 mph N/A   Clear
3:00 PM 15.8 °F -2.7 °F 5.0 °F 62% 30.06 in 10.0 mi NW 24.2 mph 34.5 mph N/A   Clear
3:20 PM 15.8 °F -1.9 °F 5.0 °F 62% 30.08 in 10.0 mi NW 21.9 mph 34.5 mph N/A   Clear
3:40 PM 15.8 °F -1.1 °F 6.8 °F 68% 30.10 in 10.0 mi NW 19.6 mph 29.9 mph N/A   Clear
4:00 PM 14.0 °F -3.0 °F 6.8 °F 73% 30.11 in 10.0 mi NW 18.4 mph 35.7 mph N/A   Clear
4:20 PM 12.2 °F -5.8 °F 6.8 °F 79% 30.12 in 10.0 mi NW 19.6 mph 29.9 mph N/A   Scattered Clouds
4:40 PM 12.2 °F -5.3 °F 6.8 °F 79% 30.13 in 10.0 mi NW 18.4 mph 34.5 mph N/A   Scattered Clouds
5:00 PM 12.2 °F -6.7 °F 6.8 °F 79% 30.14 in 10.0 mi NW 21.9 mph 33.4 mph N/A   Mostly Cloudy
5:20 PM 12.2 °F -6.3 °F 6.8 °F 79% 30.16 in 10.0 mi NW 20.7 mph 32.2 mph N/A   Overcast
5:40 PM 12.2 °F -5.8 °F 6.8 °F 79% 30.16 in 10.0 mi WNW 19.6 mph 28.8 mph N/A   Overcast
6:00 PM 10.4 °F -7.7 °F 6.8 °F 85% 30.17 in 10.0 mi WNW 18.4 mph 26.5 mph N/A   Overcast
6:20 PM 10.4 °F -7.2 °F 6.8 °F 85% 30.18 in 10.0 mi NW 17.3 mph 26.5 mph N/A Snow Light Snow
6:40 PM 10.4 °F -7.2 °F 8.6 °F 92% 30.19 in 10.0 mi WNW 17.3 mph 29.9 mph N/A Snow Light Snow
7:00 PM 10.4 °F -6.6 °F 6.8 °F 85% 30.19 in 10.0 mi WNW 16.1 mph 27.6 mph N/A Snow Light Snow
7:20 PM 10.4 °F -6.6 °F 6.8 °F 85% 30.20 in 10.0 mi NW 16.1 mph 27.6 mph N/A Snow Light Snow
7:40 PM 10.4 °F -5.4 °F 6.8 °F 85% 30.21 in 10.0 mi WNW 13.8 mph 27.6 mph N/A Snow Light Snow
8:00 PM 10.4 °F -7.7 °F 6.8 °F 85% 30.22 in 10.0 mi WNW 18.4 mph 28.8 mph N/A   Overcast
8:20 PM 10.4 °F -8.6 °F 6.8 °F 85% 30.23 in 10.0 mi WNW 20.7 mph 29.9 mph N/A Snow Light Snow
8:40 PM 10.4 °F -9.5 °F 6.8 °F 85% 30.23 in 10.0 mi WNW 23.0 mph 33.4 mph N/A   Overcast
9:00 PM 10.4 °F -6.6 °F 6.8 °F 85% 30.24 in 10.0 mi WNW 16.1 mph 31.1 mph N/A Snow Light Snow
9:20 PM 8.6 °F -7.0 °F 6.8 °F 92% 30.24 in 10.0 mi WNW 12.7 mph 29.9 mph N/A Snow Light Snow
9:40 PM 8.6 °F -9.5 °F 6.8 °F 92% 30.25 in 10.0 mi NW 17.3 mph 27.6 mph N/A   Overcast
10:00 PM 8.6 °F -11.0 °F 5.0 °F 85% 30.26 in 10.0 mi NW 20.7 mph 28.8 mph N/A   Overcast
10:20 PM 8.6 °F -11.4 °F 5.0 °F 85% 30.27 in 10.0 mi WNW 21.9 mph 29.9 mph N/A   Overcast
10:40 PM 8.6 °F -10.0 °F 3.2 °F 79% 30.28 in 10.0 mi WNW 18.4 mph 32.2 mph N/A   Overcast
11:00 PM 8.6 °F -11.0 °F 3.2 °F 79% 30.29 in 10.0 mi WNW 20.7 mph 29.9 mph N/A   Overcast
11:20 PM 8.6 °F -9.5 °F 3.2 °F 79% 30.30 in 10.0 mi WNW 17.3 mph 25.3 mph N/A Snow Light Snow
11:40 PM 8.6 °F -8.9 °F 3.2 °F 79% 30.31 in 10.0 mi WNW 16.1 mph 27.6 mph N/A Snow Light Snow